sat.trackr.live / text

‹ back to catalog

KUIPER-00353

NORAD 68865 · 2026-095B

PAYLOAD ACTIVE UNKNOWN

§ Identity

Operator
Country
US
Launch date
2026-04-28
Launch site
AFETR
Launch vehicle
Mass (kg)
RCS (m²)

External: N2YO · Heavens-Above · Gunter

§ Orbital elements

Epoch: 2026-05-24T23:46:22.666368Z

Period
93.58 min
Inclination
51.8863°
Eccentricity
0.0001048
Mean motion
15.38733357 rev/d
Perigee alt
449.1 km
Apogee alt
450.6 km
Semi-major
6,828.0 km
B*
1.2990e-3
RAAN
354.3218°
Arg perigee
223.1515°
Mean anomaly
136.9390°
Rev number
416

§ Raw data

KUIPER-003531 68865U 26095B   26144.99054012  .00050458  00000+0  12990-2 0  99962 68865  51.8863 354.3218 0001048 223.1515 136.9390 15.38733357  4161

JSON: /api/v1/satellites/68865 · /tle

For live sub-satellite position, see the globe view (requires WebGL).

§ Visibility from observer

Set your observer location to see the next 7 days of passes ≥ 10°. The values pass through the URL so the page stays shareable.

No JS? Fill the form by hand. The geolocation button needs JavaScript.